CAPE
3 2 3 1 0 0 0 0 0 0 0 0 0 0 0 0 0 0 0 0 0 0 0 0 0 0 0 0 0 0 0 0 0 0 0 0 0 0 0 0 0 0 0 0 0 0 0
0 2 2 1 0 0 0 0 0 0 0 0 0 0 0 0 0 0 0 0 0 0 0 0 0 0 0 0 0 0 0 0 0 0 0 0 0 0 0 0 0 0 0 0 0 0 0
1 2 0 0 0 0 0 0 0 0 0 0 0 0 0 0 0 0 0 0 0 0 0 0 0 0 0 0 0 0 0 0 0 0 0 0 0 0 0 0 0 0 0 0 0 0 0
1 0 0 0 0 0 0 0 0 0 0 0 0 0 0 0 0 0 0 0 0 0 0 0 0 0 0 0 0 0 0 0 0 0 0 0 0 0 0 0 0 0 0 0 0 0 0
1 2 0 0 0 0 0 0 0 0 0 0 0 0 0 0 0 0 0 0 0 0 0 0 0 0 0 0 0 0 0 0 0 0 0 0 0 0 0 0 0 0 0 0 0 0 0
2 4 0 0 0 0 0 0 0 0 0 0 0 0 0 0 0 0 0 0 0 0 0 0 0 0 0 0 0 0 0 0 0 0 0 0 0 0 0 0 0 0 0 0 0 0 0
2 1 1 0 0 0 0 0 0 0 0 0 0 0 0 0 0 0 0 0 0 0 0 0 0 0 0 0 0 0 0 0 0 0 0 0 0 0 0 0 0 0 0 0 0 0 0
1 3 0 0 0 0 0 0 0 0 0 0 0 0 0 0 0 0 0 0 0 0 0 0 0 0 0 0 0 0 0 0 0 0 0 0 0 0 0 0 0 0 0 0 0 0 0
1 1 0 0 0 0 0 0 0 0 0 0 0 0 0 0 0 0 0 0 0 0 0 0 0 0 0 0 0 0 0 0 0 0 0 0 0 0 0 0 0 0 0 0 0 0 0
0 0 0 0 0 0 0 0 0 0 0 0 0 0 0 0 0 0 0 0 0 0 0 0 0 0 0 0 0 0 0 0 0 0 0 0 0 0 0 0 0 0 0 0 0 0 0
0 0 0 0 0 0 0 0 0 0 0 0 0 0 0 0 0 0 0 0 0 0 0 0 0 0 0 0 0 0 0 0 0 0 0 0 0 0 0 0 0 0 0 0 0 0 0
0 0 0 0 0 0 0 0 0 0 0 0 0 0 0 0 0 0 0 0 0 0 0 0 0 0 0 0 0 0 0 0 0 0 0 0 0 0 0 0 0 0 0 0 0 0 0
0 0 0 0 0 0 0 0 0 0 0 0 0 0 0 0 0 0 0 0 0 0 0 0 0 0 0 0 0 0 0 0 0 0 0 0 0 0 0 0 0 0 0 0 0 0 0
0 0 0 0 0 0 0 0 0 0 0 0 0 0 0 0 0 0 0 0 0 0 0 0 0 0 0 0 0 0 0 0 0 0 0 0 0 0 0 0 0 0 0 0 0 0 0
0 0 0 0 0 0 0 0 0 0 0 0 0 0 0 0 0 0 0 0 0 0 0 0 0 0 0 0 0 0 0 0 0 0 0 0 0 0 0 0 0 0 0 0 0 0 0
0 0 0 0 0 0 0 0 0 0 0 0 0 0 0 0 0 0 0 0 0 0 0 0 0 0 0 0 0 0 0 0 0 0 0 0 0 0 0 0 0 0 0 0 0 0 0
0 0 0 0 0 0 0 0 0 0 0 0 0 0 0 0 0 0 0 0 0 0 0 0 0 0 0 0 0 0 0 0 0 0 0 0 0 0 0 0 0 0 0 0 0 0 0
0 0 0 0 0 0 0 0 0 0 0 0 0 0 0 0 0 0 0 0 0 0 0 0 0 0 0 0 0 0 0 0 0 0 0 0 0 0 0 0 0 0 0 0 0 0 0
0 0 0 0 0 0 0 0 0 0 0 0 0 0 0 0 0 0 0 0 0 0 0 0 0 0 0 0 0 0 0 0 0 0 0 0 0 0 0 0 0 0 0 0 0 0 0
0 0 0 0 0 0 0 0 0 0 0 0 0 0 0 0 0 0 0 0 0 0 0 0 0 0 0 0 0 0 0 0 0 0 0 0 0 0 0 0 0 0 0 0 0 0 0
0 0 0 0 0 0 0 0 0 0 0 0 0 0 0 0 0 0 0 0 0 0 0 0 0 0 0 0 0 0 0 0 0 0 0 0 0 0 0 0 0 0 0 0 0 0 0
0 0 0 0 0 0 0 0 0 0 0 0 0 0 0 0 0 0 0 0 0 0 0 0 0 0 0 0 0 0 0 0 0 0 0 0 0 0 0 0 0 0 0 0 0 0 0
0 0 0 0 0 0 0 0 0 0 0 0 0 0 0 0 0 0 0 0 0 0 0 0 0 0 0 0 0 0 0 0 0 0 0 0 0 0 0 0 0 0 0 0 0 0 0
0 0 0 0 0 0 0 0 0 0 0 0 0 0 0 0 0 0 0 0 0 0 0 0 0 0 0 0 0 0 0 0 0 0 0 0 0 0 0 0 0 0 0 0 0 0 0
0 0 0 0 0 0 0 0 0 0 0 0 0 0 0 0 0 0 0 0 0 0 0 0 0 0 0 0 0 0 0 0 0 0 0 0 0 0 0 0 0 0 0 0 0 0 0
1 1 0 0 0 0 0 0 0 0 0 0 0 0 0 0 0 0 0 0 0 0 0 0 0 0 0 0 0 0 0 0 0 0 0 0 0 0 0 0 0 0 0 0 0 0 0
3 2 2 1 0 0 0 0 0 0 0 0 0 0 0 0 0 0 0 0 0 0 0 0 0 0 0 0 0 0 0 0 0 0 0 0 0 0 0 0 0 0 0 0 0 0 0
3 3 2 1 1 0 0 0 0 0 0 0 0 0 0 0 0 0 0 0 0 0 0 0 0 0 0 0 0 0 0 0 0 0 0 0 0 0 0 0 0 0 0 0 0 0 0
2 3 1 1 0 1 0 0 0 0 0 0 0 0 0 0 0 0 0 0 0 0 0 0 0 0 0 0 0 0 0 0 0 0 0 0 0 0 0 0 0 0 0 0 0 0 0
CIN
0 -0 0 0 0 0 0 0 0 0 0 0 0 0 0 0 0 0 0 0 0 0 0 0 0 0 0 0 0 0 0 0 0 0 0 0 0 0 0 0 0 0 0 0 0 0 0
0 0 0 0 0 0 0 0 0 0 0 0 0 0 0 0 0 0 0 0 0 0 0 0 0 0 0 0 0 0 0 0 0 0 0 0 0 0 0 0 0 0 0 0 0 0 0
0 0 0 0 0 0 0 0 0 0 0 0 0 0 0 0 0 0 0 0 0 0 0 0 0 0 0 0 0 0 0 0 0 0 0 0 0 0 0 0 0 0 0 0 0 0 0
-0 0 0 0 0 0 0 0 0 0 0 0 0 0 0 0 0 0 0 0 0 0 0 0 0 0 0 0 0 0 0 0 0 0 0 0 0 0 0 0 0 0 0 0 0 0 0
0 0 0 0 0 0 0 0 0 0 0 0 0 0 0 0 0 0 0 0 0 0 0 0 0 0 0 0 0 0 0 0 0 0 0 0 0 0 0 0 0 0 0 0 0 0 0
0 0 0 0 0 0 0 0 0 0 0 0 0 0 0 0 0 0 0 0 0 0 0 0 0 0 0 0 0 0 0 0 0 0 0 0 0 0 0 0 0 0 0 0 0 0 0
0 0 0 0 0 0 0 0 0 0 0 0 0 0 0 0 0 0 0 0 0 0 0 0 0 0 0 0 0 0 0 0 0 0 0 0 0 0 0 0 0 0 0 0 0 0 0
-0 0 0 0 0 0 0 0 0 0 0 0 0 0 0 0 0 0 0 0 0 0 0 0 0 0 0 0 0 0 0 0 0 0 0 0 0 0 0 0 0 0 0 0 0 0 0
0 0 0 0 0 0 0 0 0 0 0 0 0 0 0 0 0 0 0 0 0 0 0 0 0 0 0 0 0 0 0 0 0 0 0 0 0 0 0 0 0 0 0 0 0 0 0
0 0 0 0 0 0 0 0 0 0 0 0 0 0 0 0 0 0 0 0 0 0 0 0 0 0 0 0 0 0 0 0 0 0 0 0 0 0 0 0 0 0 0 0 0 0 0
0 0 0 0 0 0 0 0 0 0 0 0 0 0 0 0 0 0 0 0 0 0 0 0 0 0 0 0 0 0 0 0 0 0 0 0 0 0 0 0 0 0 0 0 0 0 0
0 0 0 0 0 0 0 0 0 0 0 0 0 0 0 0 0 0 0 0 0 0 0 0 0 0 0 0 0 0 0 0 0 0 0 0 0 0 0 0 0 0 0 0 0 0 0
0 0 0 0 0 0 0 0 0 0 0 0 0 0 0 0 0 0 0 0 0 0 0 0 0 0 0 0 0 0 0 0 0 0 0 0 0 0 0 0 0 0 0 0 0 0 0
0 0 0 0 0 0 0 0 0 0 0 0 0 0 0 0 0 0 0 0 0 0 0 0 0 0 0 0 0 0 0 0 0 0 0 0 0 0 0 0 0 0 0 0 0 0 0
0 0 0 0 0 0 0 0 0 0 0 0 0 0 0 0 0 0 0 0 0 0 0 0 0 0 0 0 0 0 0 0 0 0 0 0 0 0 0 0 0 0 0 0 0 0 0
0 0 0 0 0 0 0 0 0 0 0 0 0 0 0 0 0 0 0 0 0 0 0 0 0 0 0 0 0 0 0 0 0 0 0 0 0 0 0 0 0 0 0 0 0 0 0
0 0 0 0 0 0 0 0 0 0 0 0 0 0 0 0 0 0 0 0 0 0 0 0 0 0 0 0 0 0 0 0 0 0 0 0 0 0 0 0 0 0 0 0 0 0 0
0 0 0 0 0 0 0 0 0 0 0 0 0 0 0 0 0 0 0 0 0 0 0 0 0 0 0 0 0 0 0 0 0 0 0 0 0 0 0 0 0 0 0 0 0 0 0
0 0 0 0 0 0 0 0 0 0 0 0 0 0 0 0 0 0 0 0 0 0 0 0 0 0 0 0 0 0 0 0 0 0 0 0 0 0 0 0 0 0 0 0 0 0 0
0 0 0 0 0 0 0 0 0 0 0 0 0 0 0 0 0 0 0 0 0 0 0 0 0 0 0 0 0 0 0 0 0 0 0 0 0 0 0 0 0 0 0 0 0 0 0
0 0 0 0 0 0 0 0 0 0 0 0 0 0 0 0 0 0 0 0 0 0 0 0 0 0 0 0 0 0 0 0 0 0 0 0 0 0 0 0 0 0 0 0 0 0 0
0 0 0 0 0 0 0 0 0 0 0 0 0 0 0 0 0 0 0 0 0 0 0 0 0 0 0 0 0 0 0 0 0 0 0 0 0 0 0 0 0 0 0 0 0 0 0
0 0 0 0 0 0 0 0 0 0 0 0 0 0 0 0 0 0 0 0 0 0 0 0 0 0 0 0 0 0 0 0 0 0 0 0 0 0 0 0 0 0 0 0 0 0 0
0 0 0 0 0 0 0 0 0 0 0 0 0 0 0 0 0 0 0 0 0 0 0 0 0 0 0 0 0 0 0 0 0 0 0 0 0 0 0 0 0 0 0 0 0 0 0
-0 -0 -0 0 0 0 0 0 0 0 0 0 0 0 0 0 0 0 0 0 0 0 0 0 0 0 0 0 0 0 0 0 0 0 0 0 0 0 0 0 0 0 0 0 0 0 0
-0 -0 -0 0 0 0 0 0 0 0 0 0 0 0 0 0 0 0 0 0 0 0 0 0 0 0 0 0 0 0 0 0 0 0 0 -0 0 -1 0 0 0 0 0 0 0 0 0
-0 -0 0 0 0 0 0 0 0 0 0 0 0 0 0 0 0 0 0 0 0 0 0 0 0 0 0 0 0 0 0 0 0 0 0 0 -0 0 0 -1 0 0 0 0 0 0 0
-0 -0 0 -0 -0 -0 0 0 0 0 0 0 0 0 0 0 0 0 0 0 0 0 0 0 0 0 0 0 0 0 0 0 0 0 0 0 0 0 0 -0 -0 0 0 0 0 0 0
-0 -0 -0 0 0 0 0 0 0 0 0 0 0 0 0 0 0 0 0 0 0 0 0 0 0 0 0 0 0 0 0 0 0 0 0 0 0 0 0 0 0 0 0 0 0 0 0
Wind_Speed
22 22 23 22 22 21 21 20 20 20 20 20 21 21 21 21 22 21 22 21 20 19 19 19 18 18 16 16 16 15 16 15 13 14 13 12 12 11 11 13 14 13 14 14 13 14 15
22 22 23 23 22 22 22 21 21 21 21 21 22 22 21 22 22 22 22 21 20 18 17 17 17 17 16 18 14 17 14 15 16 15 13 12 14 16 15 14 14 16 14 13 13 13 14
21 22 22 23 23 23 23 23 22 22 23 23 23 22 22 22 22 22 22 21 20 18 17 16 14 15 17 17 15 16 15 16 16 16 14 13 14 11 14 13 13 14 15 12 10 11 15
22 22 23 23 23 24 24 24 24 23 24 24 24 23 23 23 23 23 23 21 19 16 15 14 14 15 19 15 16 15 15 16 15 14 14 13 11 11 13 13 13 14 14 14 13 12 13
22 23 24 24 24 24 24 24 25 24 24 24 25 24 23 23 23 23 23 20 16 14 14 14 15 16 19 15 15 15 18 17 14 14 14 12 11 11 11 13 13 11 15 11 14 10 15
24 24 24 24 24 25 25 25 25 25 25 25 25 25 24 24 23 23 20 17 15 14 14 14 16 17 16 16 15 15 15 15 15 13 14 12 10 11 11 9 12 18 13 17 16 14 14
24 25 25 26 25 25 26 25 26 26 26 26 26 25 24 24 23 19 16 17 18 18 15 17 16 16 16 15 14 15 16 14 14 13 11 11 10 8 11 7 11 18 20 21 22 17 21
25 25 26 26 27 26 26 26 26 26 26 26 26 25 24 23 20 17 17 18 18 17 20 17 16 16 17 16 16 16 16 14 13 10 7 14 10 15 17 18 18 19 21 22 19 19 23
25 26 27 26 27 26 26 26 26 26 26 27 26 24 23 22 17 17 18 18 18 17 20 18 17 17 16 16 19 16 16 16 15 13 9 12 18 18 18 20 19 18 18 22 22 26 20
25 27 27 28 27 27 26 27 26 27 27 27 26 24 23 20 18 17 18 17 18 18 21 18 17 17 16 16 17 17 17 16 16 17 16 17 20 20 20 20 18 21 24 22 24 26 27
24 26 26 27 27 26 27 27 27 27 27 27 25 24 21 19 19 19 18 18 17 17 23 17 16 15 15 14 15 16 15 14 15 17 16 16 19 19 18 20 20 19 21 22 23 24 29
24 25 26 26 26 26 27 27 27 27 27 26 25 23 20 18 18 17 17 17 16 18 20 17 16 16 16 15 16 16 16 15 17 17 17 19 18 19 19 19 20 18 21 22 24 24 30
24 24 25 25 25 26 26 26 26 27 26 25 23 20 18 18 17 17 16 15 18 19 17 18 18 17 17 17 16 16 16 17 19 20 18 18 19 18 19 20 20 19 21 26 28 26 28
23 24 24 24 25 26 25 26 26 26 25 24 20 17 17 17 17 15 14 16 18 18 18 18 19 20 20 20 19 18 18 17 19 20 23 23 25 20 20 19 20 17 18 22 29 28 29
22 24 23 24 25 25 24 25 26 25 24 22 17 16 16 19 17 14 15 18 20 20 19 21 20 22 20 19 18 18 18 20 20 21 20 24 22 19 19 19 18 20 21 21 26 28 32
23 24 24 24 24 24 24 25 25 24 23 19 17 17 18 19 16 14 17 20 19 19 21 20 23 21 23 21 21 19 19 20 21 20 20 22 27 21 21 19 20 21 20 25 24 31 33
22 23 23 22 23 23 24 25 25 24 22 16 17 19 18 17 16 17 20 20 20 19 20 21 21 22 21 22 21 22 21 21 20 20 20 21 23 24 22 22 23 22 24 23 25 26 33
20 21 21 20 21 22 23 25 24 22 20 16 18 21 19 16 19 20 20 20 19 20 20 20 20 21 22 22 22 22 22 20 20 21 24 22 24 28 28 23 22 22 23 22 28 29 27
16 17 19 20 21 22 23 24 23 21 18 18 19 19 19 17 20 20 18 19 19 20 21 20 20 20 19 21 23 22 21 19 20 22 22 21 24 32 30 26 23 24 23 23 24 27 31
15 16 18 19 21 22 24 25 23 21 18 17 16 19 19 18 18 17 17 18 18 19 19 19 19 18 20 20 20 22 22 20 20 21 21 22 24 26 31 31 28 30 26 24 25 33 37
15 16 18 20 22 23 25 26 24 20 18 17 19 19 17 18 19 17 17 18 18 20 19 19 19 20 21 21 22 21 22 20 19 20 21 22 28 27 29 31 31 31 30 27 30 31 38
15 16 17 18 21 23 25 26 26 22 19 16 16 14 15 16 17 17 18 17 17 17 18 18 17 18 19 20 21 22 22 22 23 20 21 22 30 30 35 32 31 36 31 29 30 31 36
16 17 17 19 20 23 25 26 26 24 18 16 16 14 14 16 16 16 16 16 16 16 17 17 17 19 19 18 20 21 22 23 23 24 25 26 28 32 38 31 37 44 36 30 30 29 29
15 16 18 20 22 23 24 25 26 26 22 17 17 16 16 16 16 16 16 16 16 17 18 17 19 19 19 22 24 22 23 23 23 23 20 27 27 30 38 35 50 36 27 28 28 31 29
18 19 21 22 22 23 24 26 26 26 25 23 20 17 17 16 16 17 16 17 17 18 19 19 19 20 22 24 29 31 29 29 26 23 21 19 25 33 37 39 42 40 34 32 32 35 29
20 21 22 22 22 24 25 26 27 27 25 22 24 21 19 17 18 19 17 18 20 20 21 20 19 20 22 24 27 32 36 32 32 30 24 25 26 31 36 44 50 36 28 25 28 45 30
20 22 22 23 24 25 27 28 28 28 26 22 23 25 20 19 19 20 19 21 20 20 21 21 22 22 22 25 29 31 34 28 35 35 34 33 32 36 40 43 43 32 26 25 42 43 25
21 22 23 25 26 27 27 28 29 28 27 24 22 26 21 20 20 21 20 21 20 21 24 22 25 25 25 27 30 32 34 33 35 32 35 37 38 40 38 43 50 25 28 35 29 25 31
22 23 25 26 28 28 28 28 28 29 29 26 23 25 23 20 19 19 20 21 19 20 21 22 23 25 24 28 29 30 35 34 38 48 32 41 34 39 36 38 29 23 29 27 30 33 35
Wind_Direction
351 347 340 334 330 323 318 316 313 310 305 306 304 298 300 302 306 309 309 318 326 333 337 337 338 338 341 336 332 353 348 351 10 1 7 25 20 41 32 27 28 26 23 24 21 357 336
346 344 336 330 324 320 315 314 312 311 308 307 305 302 301 303 308 312 315 323 331 336 342 342 340 338 334 323 347 339 349 349 339 345 0 13 1 349 8 15 20 15 23 31 30 18 350
346 338 333 327 321 317 313 310 310 308 309 306 306 305 304 307 312 317 323 329 335 339 344 346 348 342 326 320 336 341 341 333 336 330 345 356 352 25 17 21 21 20 13 29 38 19 352
338 334 324 323 319 311 311 308 307 307 306 306 304 305 306 309 314 319 325 332 339 347 351 353 350 340 320 332 327 336 334 336 337 336 338 347 10 19 9 20 16 9 7 5 23 26 4
331 324 316 316 314 309 307 306 305 306 305 304 304 305 307 310 316 321 328 340 352 358 356 354 343 336 323 338 331 332 318 321 333 333 334 346 357 355 7 3 3 13 356 8 1 26 358
317 312 310 311 311 307 305 304 304 303 304 303 303 306 309 312 318 325 338 351 4 1 354 351 335 330 330 331 332 332 330 325 325 327 329 334 346 340 348 358 352 347 355 346 343 354 354
313 309 306 307 312 309 304 303 302 302 303 303 303 306 311 315 321 336 350 350 339 335 343 329 332 332 337 337 339 331 326 330 325 324 335 332 330 331 339 341 336 332 328 326 327 339 330
306 306 306 305 307 304 304 302 300 301 302 304 305 307 312 318 329 343 344 334 339 339 325 331 326 325 326 329 327 327 324 327 327 327 328 324 318 320 319 321 322 324 323 323 329 332 325
302 304 306 305 306 308 309 300 301 300 302 304 308 310 315 323 338 340 334 336 342 340 325 329 327 323 323 323 315 321 318 319 318 321 316 314 318 319 317 316 319 321 321 319 320 320 325
303 301 305 303 301 301 299 298 298 299 303 304 309 312 317 327 330 333 332 339 340 338 318 325 329 332 334 328 323 323 319 319 317 316 313 313 312 311 313 314 318 315 319 319 318 318 316
311 306 310 309 301 300 299 298 297 298 301 305 308 313 321 327 321 322 329 332 335 336 310 325 333 341 343 336 342 340 337 330 319 317 318 315 316 318 318 317 318 318 323 322 322 319 316
311 308 308 306 304 299 298 296 293 296 299 303 308 313 319 324 327 327 328 331 334 319 311 324 334 334 332 336 336 340 339 337 329 322 318 315 321 320 319 322 321 326 322 323 321 319 311
311 308 308 307 310 305 299 292 292 294 297 302 308 318 325 323 323 327 330 333 316 309 330 324 328 333 331 332 332 332 331 328 322 320 320 322 321 324 321 317 321 320 320 316 314 314 313
314 307 304 307 308 305 295 290 292 293 295 298 310 322 331 334 331 333 332 322 312 320 321 328 327 325 320 324 325 326 326 323 325 318 314 312 312 323 324 321 321 323 321 315 310 313 314
316 303 302 310 310 304 292 292 293 293 293 300 317 326 327 326 329 333 325 314 312 319 325 324 326 319 322 329 328 329 328 324 324 323 315 315 315 325 325 325 324 321 316 321 312 313 310
310 308 309 310 312 299 292 294 294 293 295 306 312 319 320 323 332 332 317 312 316 322 323 325 318 322 316 323 323 325 324 328 325 327 323 319 312 319 322 323 321 317 321 313 314 309 307
311 312 314 316 305 296 298 297 295 295 298 316 314 310 322 333 331 321 310 313 319 325 324 323 320 319 321 321 321 319 321 326 327 327 327 324 317 317 321 316 314 315 310 311 311 307 305
317 316 320 315 304 301 302 300 297 294 305 316 316 301 323 330 315 315 315 319 323 324 328 326 327 323 319 321 320 320 319 326 331 326 319 322 317 311 312 321 321 317 312 309 304 306 306
317 310 322 319 315 312 311 308 302 299 306 311 305 309 323 326 315 318 322 322 327 325 326 326 326 328 330 324 321 324 326 332 331 328 324 326 318 312 313 318 322 315 315 311 310 309 300
318 323 324 324 325 324 324 322 314 308 308 311 324 316 322 329 326 325 328 326 327 334 331 332 331 333 329 326 329 324 325 331 332 331 331 327 316 310 306 311 316 309 309 309 305 302 302
328 327 322 328 333 336 335 334 326 320 317 320 314 318 324 322 328 334 332 330 329 327 333 335 333 334 330 326 327 328 330 334 336 335 331 327 315 315 312 312 311 309 306 304 298 299 298
332 328 332 335 338 340 342 344 342 331 331 340 332 335 340 337 337 341 338 337 338 341 340 341 342 341 339 334 332 329 332 332 329 336 332 332 318 319 312 314 311 306 306 302 299 298 298
342 342 340 341 341 345 346 347 349 345 344 1 354 359 358 344 349 351 353 355 352 355 352 353 350 343 339 340 339 335 331 325 325 324 323 322 320 317 312 317 314 307 308 302 303 303 302
344 344 347 345 348 347 351 355 355 358 2 14 5 5 8 359 3 358 359 356 356 353 349 350 344 341 341 336 333 332 329 325 321 317 315 319 318 316 312 315 305 314 321 318 306 307 303
352 352 353 351 348 350 355 358 358 359 6 17 6 2 5 2 8 358 357 355 354 350 343 341 342 343 341 336 329 325 325 325 325 326 319 312 315 314 311 308 309 309 312 311 309 307 307
358 356 355 351 350 353 355 355 355 355 354 11 5 1 4 2 354 353 353 351 345 344 342 342 348 346 343 338 332 323 319 324 322 324 330 323 313 310 312 308 306 315 320 322 318 304 313
356 357 354 351 349 351 352 352 351 350 349 2 0 353 1 357 352 349 347 345 348 345 341 343 342 342 344 333 326 323 320 326 318 317 318 318 314 303 305 305 308 316 318 321 305 309 320
355 351 349 349 349 349 347 348 347 344 343 354 360 352 0 355 352 351 351 346 345 342 335 342 338 339 336 329 326 324 321 322 318 319 318 314 313 310 310 307 305 319 317 308 315 321 319
349 348 347 346 345 343 342 341 339 341 341 348 358 355 355 358 354 1 2 356 352 347 341 340 336 335 335 328 328 327 320 320 317 312 320 311 310 310 311 313 320 318 320 321 320 316 317